Location: Heidgraben
(53.7081°N, 9.6576°E)
Time: 22:59:31
(UTC+00:00)

Cosmos 2333 Rocket - Pass Details

Date: 24 October 2020
Orbit: 841 x 861 km, 70.8° (Epoch: 28 November)

Event Time Altitude Azimuth Distance (km) Brightness Sun altitude
Exits shadow 04:56:52 - 324° (NW) 3,361 4.9 -10.9°
Reaches altitude 10° 04:59:42 10° 338° (NNW) 2,487 4.4 -10.4°
Maximum altitude 05:04:08 23° 30° (NNE) 1,748 4.1 -9.8°
Drops below altitude 10° 05:08:33 10° 81° (E) 2,470 6.0 -9.1°
Sets 05:11:32 0° 96° (E) 3,400 7.9 -8.7°
